When you browse on this site, cookies collect data to enhance your experience and personalize the content and advertising you see.
Visit our Privacy Policy to learn more. By continuing to use the site, you agree to this use of cookies and data.
  • In Czech Republic
  • List of Countries
  • For 7 days
  • Water Temperature
  • Weather Map
  • Weather Widgets
  • user-avatar
    Login

    Hourly Weather Aloja

    Today, 6 June, Saturday

    Time Temperature Precipitation Wind Pressure Humidity
    00:00 +14°C° 1.1 mm 5 mps 740 mmHg 78%
    01:00 +13°C° 1.1 mm 6 mps 740 mmHg 87%
    02:00 +13°C° 0 mm 6 mps 740 mmHg 96%
    03:00 +13°C° 1.2 mm 5 mps 740 mmHg 96%
    04:00 +14°C° 1.2 mm 5 mps 740 mmHg 96%
    05:00 +14°C° 1.2 mm 4 mps 740 mmHg 96%
    06:00 +14°C° 0 mm 4 mps 740 mmHg 94%
    07:00 +14°C° 0 mm 4 mps 741 mmHg 92%
    08:00 +14°C° 0 mm 4 mps 741 mmHg 90%
    09:00 +15°C° 0 mm 4 mps 741 mmHg 80%
    10:00 +17°C° 0 mm 5 mps 741 mmHg 70%
    11:00 +19°C° 0 mm 5 mps 741 mmHg 60%
    12:00 +17°C° 0.4 mm 6 mps 742 mmHg 65%
    13:00 +17°C° 0.4 mm 6 mps 743 mmHg 70%
    14:00 +16°C° 0.4 mm 6 mps 743 mmHg 75%
    15:00 +16°C° 0 mm 6 mps 744 mmHg 64%
    16:00 +17°C° 0 mm 7 mps 744 mmHg 54%
    17:00 +17°C° 0 mm 7 mps 745 mmHg 44%
    18:00 +16°C° 0 mm 5 mps 746 mmHg 50%
    19:00 +14°C° 0 mm 4 mps 746 mmHg 57%
    20:00 +13°C° 0 mm 3 mps 747 mmHg 63%
    21:00 +12°C° 0 mm 3 mps 747 mmHg 67%
    22:00 +11°C° 0 mm 3 mps 748 mmHg 70%
    23:00 +9°C° 0 mm 3 mps 748 mmHg 73%

    Tomorrow, 7 June, Sunday

    Time Temperature Precipitation Wind Pressure Humidity
    00:00 +10°C° 0 mm 3 mps 749 mmHg 74%
    01:00 +10°C° 0 mm 3 mps 749 mmHg 74%
    02:00 +10°C° 0 mm 3 mps 750 mmHg 74%
    03:00 +11°C° 0 mm 3 mps 750 mmHg 76%
    04:00 +12°C° 0 mm 2 mps 750 mmHg 79%
    05:00 +12°C° 0 mm 2 mps 750 mmHg 82%
    06:00 +14°C° 0 mm 2 mps 750 mmHg 76%
    07:00 +16°C° 0 mm 2 mps 751 mmHg 70%
    08:00 +17°C° 0 mm 2 mps 751 mmHg 64%
    09:00 +17°C° 0 mm 3 mps 751 mmHg 66%
    10:00 +17°C° 0 mm 3 mps 752 mmHg 69%
    11:00 +17°C° 0 mm 4 mps 752 mmHg 71%
    12:00 +18°C° 0.1 mm 4 mps 752 mmHg 69%
    13:00 +18°C° 0.1 mm 3 mps 752 mmHg 67%
    14:00 +18°C° 0.1 mm 3 mps 752 mmHg 65%
    15:00 +19°C° 0 mm 2 mps 752 mmHg 63%
    16:00 +20°C° 0 mm 2 mps 752 mmHg 61%
    17:00 +22°C° 0 mm 1 mps 752 mmHg 59%
    18:00 +21°C° 0 mm 1 mps 751 mmHg 65%
    19:00 +19°C° 0 mm 2 mps 751 mmHg 71%
    20:00 +18°C° 0 mm 2 mps 751 mmHg 76%
    21:00 +17°C° 0.4 mm 2 mps 751 mmHg 83%
    22:00 +17°C° 0.4 mm 2 mps 750 mmHg 90%
    23:00 +16°C° 0.4 mm 2 mps 750 mmHg 96%

    Day after tomorrow, 8 June, Monday

    Time Temperature Precipitation Wind Pressure Humidity
    00:00 +17°C° 0.7 mm 2 mps 750 mmHg 97%
    01:00 +17°C° 0.7 mm 2 mps 750 mmHg 97%
    02:00 +18°C° 0.7 mm 2 mps 750 mmHg 98%
    03:00 +17°C° 0 mm 2 mps 750 mmHg 98%
    04:00 +17°C° 0 mm 2 mps 750 mmHg 98%
    05:00 +18°C° 0 mm 1 mps 750 mmHg 99%
    06:00 +19°C° 0 mm 1 mps 750 mmHg 97%
    07:00 +20°C° 0 mm 1 mps 750 mmHg 94%
    08:00 +21°C° 0 mm 1 mps 750 mmHg 92%
    09:00 +21°C° 0.2 mm 2 mps 750 mmHg 91%
    10:00 +21°C° 0.2 mm 2 mps 750 mmHg 90%
    11:00 +21°C° 0.2 mm 2 mps 750 mmHg 89%
    12:00 +21°C° 0.9 mm 2 mps 750 mmHg 89%
    13:00 +23°C° 0.9 mm 2 mps 750 mmHg 88%
    14:00 +23°C° 0.9 mm 1 mps 750 mmHg 88%
    15:00 +23°C° 0.3 mm 1 mps 750 mmHg 85%
    16:00 +24°C° 0.3 mm 1 mps 750 mmHg 82%
    17:00 +24°C° 0.3 mm 1 mps 750 mmHg 79%
    18:00 +23°C° 1.4 mm 2 mps 750 mmHg 83%
    19:00 +21°C° 1.4 mm 2 mps 750 mmHg 88%
    20:00 +20°C° 1.4 mm 2 mps 750 mmHg 93%
    21:00 +19°C° 0.1 mm 2 mps 751 mmHg 94%
    22:00 +19°C° 0.1 mm 2 mps 751 mmHg 95%
    23:00 +18°C° 0.1 mm 2 mps 751 mmHg 96%

    9 June, Tuesday

    Time Temperature Precipitation Wind Pressure Humidity
    00:00 +18°C° 0 mm 2 mps 751 mmHg 96%
    01:00 +18°C° 0 mm 2 mps 751 mmHg 96%
    02:00 +17°C° 0 mm 2 mps 751 mmHg 96%
    03:00 +18°C° 0 mm 2 mps 751 mmHg 96%
    04:00 +18°C° 0 mm 2 mps 751 mmHg 96%
    05:00 +18°C° 0 mm 2 mps 751 mmHg 96%
    06:00 +19°C° 0.4 mm 2 mps 751 mmHg 93%
    07:00 +21°C° 0.4 mm 2 mps 751 mmHg 90%
    08:00 +23°C° 0.4 mm 2 mps 751 mmHg 87%
    09:00 +24°C° 0.9 mm 2 mps 752 mmHg 85%
    10:00 +25°C° 0.9 mm 2 mps 752 mmHg 82%
    11:00 +25°C° 0.9 mm 2 mps 752 mmHg 80%
    12:00 +26°C° 0.7 mm 2 mps 752 mmHg 77%
    13:00 +26°C° 0.7 mm 2 mps 752 mmHg 75%
    14:00 +26°C° 0.7 mm 3 mps 752 mmHg 72%
    15:00 +25°C° 0.5 mm 2 mps 752 mmHg 75%
    16:00 +25°C° 0.5 mm 2 mps 752 mmHg 78%
    17:00 +24°C° 0.5 mm 2 mps 752 mmHg 81%
    18:00 +23°C° 0.1 mm 2 mps 753 mmHg 85%
    19:00 +20°C° 0.1 mm 2 mps 753 mmHg 88%
    20:00 +19°C° 0.1 mm 2 mps 753 mmHg 92%
    21:00 +18°C° 0.2 mm 2 mps 753 mmHg 93%
    22:00 +17°C° 0.2 mm 2 mps 753 mmHg 95%
    23:00 +17°C° 0.2 mm 2 mps 753 mmHg 97%

    10 June, Wednesday

    Time Temperature Precipitation Wind Pressure Humidity
    00:00 +16°C° 0.5 mm 2 mps 753 mmHg 97%
    01:00 +16°C° 0.5 mm 1 mps 753 mmHg 97%
    02:00 +16°C° 0.5 mm 1 mps 753 mmHg 98%
    03:00 +16°C° 0.2 mm 1 mps 754 mmHg 98%
    04:00 +16°C° 0.2 mm 1 mps 754 mmHg 98%
    05:00 +18°C° 0.2 mm 1 mps 754 mmHg 97%
    06:00 +18°C° 0 mm 1 mps 754 mmHg 96%
    07:00 +18°C° 0 mm 1 mps 754 mmHg 94%
    08:00 +19°C° 0 mm 1 mps 754 mmHg 93%
    09:00 +21°C° 0 mm 1 mps 754 mmHg 87%
    10:00 +22°C° 0 mm 1 mps 754 mmHg 82%
    11:00 +24°C° 0 mm 2 mps 754 mmHg 76%
    12:00 +24°C° 0.5 mm 2 mps 754 mmHg 74%
    13:00 +25°C° 0.5 mm 2 mps 754 mmHg 73%
    14:00 +26°C° 0.5 mm 2 mps 754 mmHg 71%
    15:00 +25°C° 0.9 mm 2 mps 754 mmHg 75%
    16:00 +25°C° 0.9 mm 2 mps 754 mmHg 80%
    17:00 +24°C° 0.9 mm 2 mps 753 mmHg 85%
    18:00 +23°C° 0.4 mm 2 mps 754 mmHg 87%
    19:00 +21°C° 0.4 mm 2 mps 754 mmHg 90%
    20:00 +20°C° 0.4 mm 2 mps 754 mmHg 92%
    21:00 +20°C° 0 mm 2 mps 754 mmHg 94%
    22:00 +19°C° 0 mm 2 mps 754 mmHg 95%
    23:00 +18°C° 0 mm 2 mps 754 mmHg 97%

    11 June, Thursday

    Time Temperature Precipitation Wind Pressure Humidity
    00:00 +18°C° 0 mm 2 mps 754 mmHg 97%
    01:00 +17°C° 0 mm 2 mps 754 mmHg 98%
    02:00 +17°C° 0 mm 2 mps 754 mmHg 98%
    03:00 +17°C° 0 mm 2 mps 754 mmHg 98%
    04:00 +17°C° 0 mm 2 mps 754 mmHg 97%
    05:00 +17°C° 0 mm 2 mps 754 mmHg 97%
    06:00 +17°C° 0 mm 2 mps 754 mmHg 94%
    07:00 +18°C° 0 mm 2 mps 754 mmHg 92%
    08:00 +19°C° 0 mm 2 mps 754 mmHg 89%
    09:00 +20°C° 0 mm 2 mps 754 mmHg 85%
    10:00 +21°C° 0 mm 2 mps 754 mmHg 81%
    11:00 +23°C° 0 mm 2 mps 754 mmHg 76%
    12:00 +24°C° 0 mm 2 mps 754 mmHg 75%
    13:00 +24°C° 0 mm 2 mps 754 mmHg 73%
    14:00 +25°C° 0 mm 2 mps 754 mmHg 71%
    15:00 +25°C° 0.2 mm 2 mps 754 mmHg 72%
    16:00 +25°C° 0.2 mm 2 mps 754 mmHg 73%
    17:00 +25°C° 0.2 mm 2 mps 754 mmHg 74%
    18:00 +24°C° 0.2 mm 3 mps 754 mmHg 77%
    19:00 +22°C° 0.2 mm 3 mps 754 mmHg 80%
    20:00 +21°C° 0.2 mm 3 mps 754 mmHg 84%
    21:00 +21°C° 0 mm 3 mps 755 mmHg 86%
    22:00 +20°C° 0 mm 3 mps 755 mmHg 88%
    23:00 +19°C° 0 mm 3 mps 755 mmHg 90%
    Show more